Wind_Speed
7 6 5 5 5 4 3 2 3 3 4 4 2 3 3 5 6 5 5 6 3 2 5 11 12 11 9 9 9 9 9 10 11 12 13 14 15 16 16 16 17 16 17
7 7 6 5 5 4 2 2 3 3 3 3 2 3 3 2 4 6 5 5 6 6 5 7 11 12 9 9 9 9 10 10 11 11 12 13 13 13 14 13 13 12 12
8 4 5 5 4 3 2 2 3 3 4 3 3 1 1 1 4 7 6 5 5 6 6 7 8 11 9 9 9 9 9 10 10 10 10 11 10 10 11 11 10 9 10
7 5 6 5 3 2 1 1 3 3 4 5 4 3 2 1 1 4 3 3 4 5 2 6 7 9 10 9 10 10 10 9 8 8 8 10 10 9 11 11 10 10 11
7 6 6 6 4 3 1 3 2 4 6 7 7 2 2 2 2 3 3 3 3 3 4 2 5 6 6 6 6 7 8 9 7 7 8 8 8 9 8 9 9 9 10
9 7 7 5 5 4 2 2 3 5 5 8 8 5 4 1 2 3 4 4 3 2 3 4 3 5 5 6 6 6 7 7 7 6 6 6 7 7 8 8 9 9 9
10 8 8 6 5 5 2 1 3 3 5 7 7 1 3 2 4 3 4 4 4 3 2 2 1 2 4 4 5 6 6 7 6 6 6 6 7 7 8 8 8 8 9
11 10 9 8 5 6 3 2 3 4 3 5 8 4 1 7 4 5 4 3 3 2 0 2 1 1 2 3 5 6 7 7 7 7 6 6 7 8 8 8 8 9 9
13 12 10 9 7 6 6 4 3 3 5 2 4 4 3 2 2 5 3 4 3 3 2 2 3 4 4 3 5 6 6 8 8 8 8 8 7 8 9 8 9 9 9
16 14 12 10 9 8 5 5 4 3 2 3 2 1 2 4 5 1 6 1 3 2 4 2 2 4 5 4 4 9 8 8 8 9 9 9 9 8 9 9 9 9 10
17 16 14 13 11 11 9 5 4 3 2 6 3 2 2 4 3 6 7 2 5 2 1 3 3 2 4 5 4 5 10 9 9 10 10 11 10 10 10 11 10 10 11
18 19 17 15 13 13 10 8 6 5 5 4 5 4 5 5 5 5 6 7 7 7 5 5 3 2 2 5 7 8 5 9 11 11 12 13 13 12 12 12 11 11 11
19 21 20 17 16 14 12 10 9 7 7 7 7 8 5 7 6 7 7 8 5 5 5 6 3 2 1 1 4 6 8 7 9 12 12 14 14 15 14 13 12 12 11
17 19 20 18 17 14 13 13 11 10 9 8 9 8 9 8 7 7 8 8 7 6 4 7 4 6 4 4 5 7 7 9 10 11 14 14 15 16 16 16 15 14 13
14 16 17 18 17 16 14 12 12 11 10 10 9 9 10 10 9 9 9 8 7 7 4 6 5 2 7 8 8 8 9 11 12 12 14 15 15 16 18 18 17 16 16
16 16 15 17 17 16 15 15 14 13 13 13 13 12 10 10 11 10 11 10 9 11 7 14 9 7 9 10 10 9 10 14 15 13 14 16 17 18 19 20 20 19 18
18 18 18 17 18 18 16 15 15 13 14 15 13 13 13 12 11 10 11 12 13 11 14 15 12 11 11 11 11 10 11 12 13 14 14 13 16 17 18 19 20 20 20
23 22 21 20 20 19 18 17 16 16 16 15 15 15 14 13 13 14 14 16 16 12 15 17 17 17 16 13 14 14 14 13 12 11 14 15 15 17 19 19 20 22 23
24 24 24 23 22 22 20 20 19 18 18 17 16 15 15 15 14 15 16 17 17 18 18 19 19 18 17 15 15 15 15 14 14 14 17 19 17 18 20 21 22 24 24
23 25 25 25 24 22 22 21 20 19 18 17 16 16 17 17 17 18 18 18 19 19 20 20 22 21 19 16 14 17 16 16 15 15 14 15 15 15 18 21 22 24 25
23 24 25 25 24 24 23 23 22 20 19 18 18 18 18 20 21 21 19 19 18 19 21 22 22 20 19 19 15 18 16 15 10 13 18 15 12 13 13 16 19 20 23
21 21 23 24 25 26 25 25 22 20 20 20 19 20 21 21 22 24 22 24 25 22 23 23 22 22 19 17 17 17 13 12 14 19 20 17 15 15 13 11 13 14 18
20 20 21 23 25 25 25 26 27 26 22 21 21 22 23 22 18 18 17 18 18 20 23 19 16 17 18 17 14 14 14 15 17 17 12 18 14 15 10 10 12 12 15
20 20 21 22 23 24 25 26 28 24 23 24 24 23 22 20 16 14 14 15 16 16 15 16 16 16 17 15 15 17 15 16 20 24 23 22 20 8 16 13 12 13 16
19 20 20 20 22 23 23 25 26 21 22 23 21 20 17 15 16 18 12 13 14 16 17 19 16 19 18 20 22 20 20 18 20 21 19 21 8 8 10 10 10 12 13
20 18 19 20 22 21 21 22 22 19 20 19 16 15 18 17 18 18 14 13 16 15 12 12 13 15 15 13 13 14 16 18 18 16 15 16 10 10 4 10 10 12 14
Wind_Direction
180 188 188 188 214 202 241 276 298 302 294 280 281 330 285 241 233 238 226 238 205 187 221 219 216 217 221 228 235 237 243 240 240 241 243 243 246 250 256 253 261 258 253
182 183 192 201 209 226 246 277 303 328 340 322 291 258 295 237 212 213 208 213 215 226 218 214 219 216 224 229 236 240 244 244 250 252 249 249 252 251 251 249 255 251 252
186 207 193 193 189 226 261 285 321 320 333 343 353 311 305 162 192 192 197 204 222 201 202 198 211 214 223 229 235 239 245 252 251 251 257 258 255 252 245 243 248 241 228
190 195 183 171 162 149 157 72 16 350 357 346 353 358 39 93 123 175 169 191 196 189 161 196 193 203 221 234 236 241 252 250 250 255 255 256 254 250 243 243 240 236 242
194 189 182 176 163 158 102 337 3 344 341 348 314 341 1 12 70 113 162 143 163 178 175 228 207 212 222 225 232 239 242 244 250 252 253 250 249 243 244 244 243 247 243
196 195 192 186 194 199 211 320 332 346 327 343 330 349 350 35 103 56 120 148 125 140 171 185 213 225 249 239 234 244 243 244 249 259 252 246 244 239 234 235 243 243 242
208 210 216 211 219 224 241 254 278 315 327 351 293 71 66 66 142 109 106 106 92 104 103 141 171 226 246 286 272 245 241 237 244 254 260 249 241 235 230 233 237 236 234
215 213 215 224 223 230 221 269 292 309 308 4 352 294 347 132 115 87 86 83 38 57 300 227 183 219 227 246 236 262 238 239 241 246 250 249 244 240 237 233 231 233 237
221 220 220 227 225 234 228 210 235 308 345 327 3 336 296 322 304 142 103 81 51 50 35 236 236 226 228 252 257 254 252 239 241 243 245 243 244 243 243 241 240 240 244
222 223 225 224 229 230 233 224 235 278 295 311 274 48 2 356 337 217 169 135 303 357 17 321 261 244 227 227 254 217 227 228 234 238 241 243 245 247 247 246 247 250 253
220 223 222 223 227 226 217 231 225 249 234 285 287 342 308 255 243 296 311 335 305 269 335 328 327 279 248 230 238 235 241 235 234 238 239 239 240 244 250 249 250 252 254
222 219 219 220 220 224 221 225 223 230 260 265 271 274 292 295 287 282 279 281 301 284 288 268 306 326 286 246 232 234 257 237 236 239 241 242 241 243 247 250 252 255 257
220 212 211 215 216 219 221 223 228 238 250 258 251 274 272 264 273 282 282 279 274 287 301 266 249 283 314 354 234 257 272 250 241 242 240 241 244 245 246 247 249 251 257
208 204 208 216 216 220 224 230 235 241 246 244 242 250 266 255 259 263 275 308 302 260 231 262 262 242 265 284 276 286 258 265 253 254 245 239 241 244 246 246 244 246 249
203 201 206 210 213 218 223 230 235 237 243 235 239 243 241 257 249 259 261 270 279 294 265 167 265 203 270 291 284 279 265 263 265 261 245 242 243 246 247 246 242 241 243
213 201 208 210 212 217 224 229 234 235 234 239 240 236 242 261 264 257 263 254 251 266 277 284 264 271 280 283 280 275 267 256 264 256 245 239 240 251 245 243 241 239 237
210 210 210 212 217 222 226 225 230 236 240 247 246 243 237 242 250 257 254 258 256 253 267 270 270 272 260 275 271 269 268 263 259 259 252 248 254 242 242 239 238 238 239
213 215 216 219 222 226 229 228 230 235 240 246 247 241 243 247 248 257 259 259 265 267 258 263 272 278 268 268 268 264 267 263 259 256 257 261 255 245 244 242 242 240 237
212 215 218 221 224 228 231 231 232 240 244 239 238 239 247 251 255 260 266 274 266 255 250 255 266 266 270 264 260 259 258 257 253 253 257 260 255 251 249 249 248 243 241
213 215 219 222 224 227 231 231 233 237 236 237 241 248 252 254 256 260 259 261 259 264 264 262 266 266 258 261 241 260 262 242 243 247 246 248 255 254 251 250 249 243 237
217 218 219 222 224 226 230 227 230 233 237 244 249 252 255 258 257 256 262 266 265 264 264 266 264 264 264 265 234 241 243 264 284 248 260 251 246 257 259 258 248 240 235
216 219 220 221 222 227 232 233 232 237 243 251 257 259 262 263 264 266 265 257 253 261 262 264 268 273 275 282 274 276 266 258 263 260 234 257 238 253 249 249 238 238 233
215 219 220 221 227 230 234 237 240 241 252 257 262 266 268 267 261 259 267 275 269 259 255 263 271 266 278 277 281 273 268 264 258 259 254 265 247 245 223 243 243 224 220
214 218 223 225 229 235 237 240 244 244 252 259 262 264 263 265 264 251 258 263 266 262 261 257 259 268 271 272 268 272 272 271 268 263 257 262 261 228 227 234 231 217 214
217 218 221 226 231 237 239 242 244 244 252 255 255 258 257 257 259 255 255 265 268 268 268 268 272 283 282 271 267 266 265 264 264 262 249 241 239 199 206 212 209 208 203
222 222 224 226 230 236 239 243 243 236 244 247 244 251 257 249 247 255 260 267 270 275 275 275 269 280 287 279 278 261 260 260 263 267 259 219 188 189 165 206 196 190 185
Height
858 859 859 860 860 860 860 860 859 858 858 857 857 856 855 855 855 855 855 856 856 856 857 858 860 861 862 863 864 865 866 867 867 868 869 871 872 873 873 873 874 874 875
858 857 859 859 859 859 859 859 857 857 856 855 855 854 854 854 854 854 855 854 854 855 856 857 859 860 861 862 863 864 865 866 866 867 867 868 868 869 870 871 871 872 872
858 858 858 858 858 858 858 858 857 855 854 853 852 852 852 852 851 852 853 853 853 853 854 855 857 858 859 860 861 862 863 864 864 865 865 866 866 867 868 868 870 870 871
857 857 857 857 857 857 857 857 856 854 853 851 851 850 850 851 851 851 851 851 853 852 853 854 855 857 858 858 859 860 860 861 861 862 863 863 864 865 866 867 868 868 870
856 856 855 856 857 857 857 856 856 855 853 851 847 847 848 849 849 849 850 851 851 852 852 852 853 854 855 856 856 858 859 860 860 860 861 861 862 863 864 865 866 867 868
855 855 855 856 856 856 857 857 857 856 854 852 849 847 847 847 848 848 848 849 850 851 851 851 852 852 853 854 854 855 856 857 858 859 859 859 860 861 862 863 864 865 866
853 853 854 855 856 856 856 857 856 855 852 853 848 845 845 846 846 847 847 848 849 849 850 850 850 850 850 851 852 852 853 855 855 856 857 858 859 860 860 861 862 863 864
851 852 853 854 855 854 856 856 856 854 853 854 851 848 841 843 844 844 847 848 849 849 849 849 849 849 849 850 850 850 851 853 854 854 855 856 857 858 859 859 860 861 862
849 851 852 853 855 855 854 857 856 856 853 854 854 852 845 845 842 844 847 846 848 847 847 848 848 848 847 848 848 849 849 851 852 853 854 855 856 857 858 858 859 860 861
846 848 850 852 853 854 854 856 856 856 856 854 853 852 854 853 843 840 842 845 845 844 847 846 846 846 846 846 846 846 847 848 850 851 852 853 854 855 856 857 858 858 859
842 845 847 850 852 853 853 854 855 855 855 854 852 852 852 851 852 848 841 840 843 842 843 844 844 844 844 844 845 845 845 846 847 848 850 851 852 852 853 854 856 856 857
838 840 844 847 849 851 852 853 854 854 854 855 853 853 850 849 846 847 845 843 841 841 841 841 842 843 843 843 843 842 842 843 844 846 847 848 849 850 851 852 853 854 855
832 835 840 843 846 848 850 851 851 852 852 852 853 850 850 849 849 848 846 843 841 839 840 839 840 842 841 841 841 841 841 841 842 843 844 845 846 847 848 849 850 851 853
828 831 836 839 842 844 847 848 849 849 850 850 851 851 849 848 848 847 846 843 840 837 837 839 838 838 840 840 840 839 839 839 839 839 839 840 842 843 844 845 847 848 850
824 829 832 836 838 841 843 845 846 846 848 848 848 848 848 846 845 845 844 843 844 838 831 835 836 836 838 837 837 838 837 837 836 835 836 837 838 839 840 841 842 843 845
823 826 829 832 834 837 839 841 841 843 844 845 845 845 845 845 843 843 842 842 842 841 838 834 831 833 835 835 834 834 834 833 832 832 832 833 834 834 835 837 838 839 840
821 824 826 827 830 832 834 836 837 838 839 840 840 840 841 842 841 840 841 839 839 841 837 833 831 831 832 832 831 830 830 829 828 828 828 829 829 830 831 832 833 835 836
816 819 821 823 825 827 829 831 832 833 834 835 835 836 837 837 838 838 838 837 836 836 835 831 830 828 828 827 827 826 826 824 823 822 824 824 825 825 826 827 828 830 831
810 813 816 818 820 822 824 826 827 828 829 830 830 832 833 833 834 833 832 831 829 828 827 827 824 823 822 821 821 821 821 820 820 819 819 819 819 820 820 821 822 824 826
805 807 810 812 815 817 819 820 821 823 825 826 827 828 828 829 829 828 828 827 826 825 823 822 819 817 816 814 816 818 814 813 813 814 815 815 814 814 814 815 816 818 820
799 802 805 807 810 812 813 814 816 818 820 821 823 823 823 823 823 823 823 821 821 820 818 816 812 810 810 810 810 811 811 808 807 809 810 808 809 811 810 808 809 810 814
794 797 800 803 804 806 807 811 813 814 816 817 818 818 818 818 817 816 816 816 817 816 815 814 811 809 806 807 805 804 804 806 807 804 804 805 804 805 806 806 804 806 809
789 792 795 798 799 801 803 806 809 811 812 812 812 813 813 812 811 813 812 811 810 811 810 810 807 806 805 805 805 804 801 800 801 800 799 798 798 800 801 803 801 802 805
783 787 790 792 794 796 799 802 805 808 808 807 807 808 808 807 807 808 809 808 807 807 806 805 803 803 803 801 801 801 799 796 796 795 795 792 793 795 795 799 799 799 801
778 780 783 787 789 791 793 796 799 802 801 801 802 802 803 804 803 803 804 804 804 803 801 799 797 796 795 794 794 796 792 790 786 784 785 785 789 791 793 796 797 797 798
771 773 776 779 782 785 787 789 791 794 794 795 795 797 798 799 797 798 799 801 799 798 797 796 795 792 790 789 789 788 787 785 782 780 780 781 785 788 791 793 794 795 798